KZR984 UATG-UACC

Flight info

Callsign KZR984
Flight time 1h 54m
Altitude 37000
Route GISTO1S GISTO L988 KODUM N996 TUSEP Z746 VETUB VETUB5S
Aircraft A320/M-SDE1FGHIJ1RWXYZ/LB1

Departure

Time 2026-05-08 11:24
Airport Atyrau International Airport (UATG)

Arrival

Time 2026-05-08 13:18
Airport Nursultan Nazarbayev International Airport (UACC)
Time Latitude Longitude Altitude Speed Heading
2026-05-08 10:58 47.12297 51.82779 -81 ft 0 kts 151°
2026-05-08 11:15 47.12297 51.82780 -81 ft 0 kts 151°
2026-05-08 11:15 47.12270 51.82785 -82 ft 6 kts 192°
2026-05-08 11:16 47.12240 51.82751 -81 ft 5 kts 223°
2026-05-08 11:16 47.12212 51.82744 -86 ft 4 kts 173°
2026-05-08 11:16 47.12184 51.82759 -81 ft 7 kts 158°
2026-05-08 11:16 47.12142 51.82743 -85 ft 6 kts 218°
2026-05-08 11:17 47.12119 51.82701 -82 ft 5 kts 237°
2026-05-08 11:17 47.12103 51.82663 -82 ft 5 kts 238°
2026-05-08 11:17 47.12088 51.82626 -81 ft 4 kts 239°
2026-05-08 11:17 47.12069 51.82576 -82 ft 9 kts 241°
2026-05-08 11:18 47.12036 51.82492 -86 ft 10 kts 239°
2026-05-08 11:18 47.11994 51.82387 -83 ft 13 kts 240°
2026-05-08 11:18 47.11933 51.82275 -82 ft 15 kts 201°
2026-05-08 11:18 47.11844 51.82318 -81 ft 13 kts 150°
2026-05-08 11:19 47.11768 51.82383 -82 ft 13 kts 150°
2026-05-08 11:19 47.11694 51.82445 -81 ft 12 kts 149°
2026-05-08 11:19 47.11627 51.82503 -81 ft 11 kts 149°
2026-05-08 11:19 47.11558 51.82561 -84 ft 11 kts 150°
2026-05-08 11:20 47.11492 51.82618 -82 ft 10 kts 150°
2026-05-08 11:20 47.11433 51.82667 -82 ft 9 kts 150°
2026-05-08 11:20 47.11381 51.82712 -85 ft 8 kts 149°
2026-05-08 11:20 47.11311 51.82772 -81 ft 16 kts 150°
2026-05-08 11:21 47.11221 51.82847 -81 ft 14 kts 150°
2026-05-08 11:21 47.11148 51.82919 -81 ft 12 kts 131°
2026-05-08 11:21 47.11117 51.83026 -83 ft 11 kts 129°
2026-05-08 11:21 47.11066 51.83015 -72 ft 6 kts 243°
2026-05-08 11:22 47.11085 51.82961 -76 ft 7 kts 325°
2026-05-08 11:22 47.11112 51.82938 -82 ft 0 kts 330°
2026-05-08 11:23 47.11139 51.82915 -79 ft 24 kts 329°
2026-05-08 11:23 47.11526 51.82585 -85 ft 100 kts 330°
2026-05-08 11:24 47.12307 51.81922 -82 ft 156 kts 330°
2026-05-08 11:24 47.13298 51.81067 437 ft 165 kts 326°
2026-05-08 11:24 47.14276 51.80198 1302 ft 165 kts 325°
2026-05-08 11:24 47.15261 51.79337 2012 ft 169 kts 326°
2026-05-08 11:25 47.16339 51.78431 2432 ft 188 kts 327°
2026-05-08 11:25 47.17560 51.77407 2791 ft 215 kts 327°
2026-05-08 11:25 47.18938 51.76228 3361 ft 237 kts 327°
2026-05-08 11:25 47.20401 51.75008 4093 ft 250 kts 332°
2026-05-08 11:26 47.22155 51.74548 5025 ft 264 kts
2026-05-08 11:26 47.23842 51.75698 5973 ft 278 kts 39°
2026-05-08 11:26 47.24869 51.78125 6889 ft 289 kts 73°
2026-05-08 11:26 47.24962 51.81106 7776 ft 296 kts 93°
2026-05-08 11:27 47.24926 51.83120 8365 ft 298 kts 82°
2026-05-08 11:27 47.25572 51.85985 9238 ft 296 kts 57°
2026-05-08 11:27 47.26750 51.88466 10113 ft 298 kts 47°
2026-05-08 11:27 47.28171 51.90848 10454 ft 321 kts 44°
2026-05-08 11:28 47.30226 51.94277 10861 ft 351 kts 51°
2026-05-08 11:28 47.31109 51.96360 11287 ft 359 kts 61°
2026-05-08 11:28 47.31960 51.99853 12019 ft 368 kts 76°
2026-05-08 11:28 47.32426 52.03578 12793 ft 372 kts 78°
2026-05-08 11:29 47.32871 52.07360 13570 ft 376 kts 78°
2026-05-08 11:29 47.33321 52.11179 14252 ft 380 kts 78°
2026-05-08 11:29 47.33782 52.15035 14915 ft 384 kts 78°
2026-05-08 11:29 47.34256 52.18922 15587 ft 387 kts 78°
2026-05-08 11:30 47.34741 52.22845 16250 ft 391 kts 78°
2026-05-08 11:30 47.35234 52.26804 16914 ft 394 kts 78°
2026-05-08 11:30 47.35731 52.30800 17568 ft 398 kts 78°
2026-05-08 11:30 47.36231 52.34840 18248 ft 402 kts 78°
2026-05-08 11:31 47.36735 52.38912 18828 ft 405 kts 78°
2026-05-08 11:31 47.37246 52.43015 19401 ft 409 kts 78°
2026-05-08 11:31 47.37762 52.47160 19991 ft 412 kts 78°
2026-05-08 11:31 47.38284 52.51339 20564 ft 416 kts 78°
2026-05-08 11:32 47.38812 52.55555 21117 ft 419 kts 78°
2026-05-08 11:32 47.39343 52.59803 21658 ft 423 kts 78°
2026-05-08 11:32 47.39872 52.64093 22198 ft 427 kts 78°
2026-05-08 11:32 47.40400 52.68416 22719 ft 430 kts 79°
2026-05-08 11:33 47.40927 52.72773 23224 ft 433 kts 79°
2026-05-08 11:33 47.41503 52.77160 23660 ft 436 kts 75°
2026-05-08 11:33 47.42457 52.81417 24051 ft 438 kts 66°
2026-05-08 11:33 47.43602 52.85600 24451 ft 441 kts 66°
2026-05-08 11:34 47.44754 52.89815 24845 ft 443 kts 66°
2026-05-08 11:34 47.45907 52.94049 25239 ft 446 kts 66°
2026-05-08 11:34 47.47065 52.98319 25615 ft 449 kts 66°
2026-05-08 11:34 47.48222 53.02611 25991 ft 451 kts 67°
2026-05-08 11:35 47.49381 53.06932 26361 ft 454 kts 67°
2026-05-08 11:35 47.50547 53.11282 26749 ft 456 kts 67°
2026-05-08 11:35 47.51719 53.15658 27144 ft 459 kts 67°
2026-05-08 11:35 47.52898 53.20066 27484 ft 462 kts 67°
2026-05-08 11:36 47.54081 53.24495 27820 ft 464 kts 67°
2026-05-08 11:36 47.55269 53.28954 28142 ft 467 kts 67°
2026-05-08 11:36 47.56460 53.33435 28451 ft 469 kts 67°
2026-05-08 11:36 47.57655 53.37944 28748 ft 471 kts 67°
2026-05-08 11:37 47.58854 53.42469 29048 ft 473 kts 67°
2026-05-08 11:37 47.60058 53.47018 29336 ft 475 kts 67°
2026-05-08 11:37 47.61266 53.51590 29609 ft 477 kts 67°
2026-05-08 11:37 47.62478 53.56178 29860 ft 479 kts 68°
2026-05-08 11:38 47.63694 53.60785 30089 ft 481 kts 68°
2026-05-08 11:38 47.64909 53.65404 30390 ft 480 kts 68°
2026-05-08 11:38 47.66116 53.70013 30675 ft 480 kts 68°
2026-05-08 11:38 47.67322 53.74630 30950 ft 480 kts 68°
2026-05-08 11:39 47.68527 53.79249 31227 ft 480 kts 68°
2026-05-08 11:39 47.69729 53.83859 31507 ft 480 kts 68°
2026-05-08 11:39 47.70933 53.88484 31800 ft 480 kts 68°
2026-05-08 11:39 47.72131 53.93101 32086 ft 480 kts 68°
2026-05-08 11:40 47.73329 53.97730 32380 ft 480 kts 68°
2026-05-08 11:40 47.74521 54.02357 32671 ft 480 kts 68°
2026-05-08 11:40 47.75712 54.06987 32944 ft 480 kts 68°
2026-05-08 11:40 47.76901 54.11619 33220 ft 480 kts 69°
2026-05-08 11:41 47.78092 54.16271 33496 ft 481 kts 69°
2026-05-08 11:41 47.79283 54.20912 33772 ft 481 kts 69°
2026-05-08 11:41 47.80475 54.25560 34018 ft 481 kts 69°
2026-05-08 11:41 47.81666 54.30216 34251 ft 482 kts 69°
2026-05-08 11:42 47.82855 54.34879 34490 ft 482 kts 69°
2026-05-08 11:42 47.84042 54.39544 34719 ft 482 kts 69°
2026-05-08 11:42 47.85228 54.44216 34947 ft 482 kts 69°
2026-05-08 11:42 47.86412 54.48885 35163 ft 483 kts 69°
2026-05-08 11:43 47.87595 54.53565 35380 ft 483 kts 69°
2026-05-08 11:43 47.88774 54.58249 35602 ft 483 kts 69°
2026-05-08 11:43 47.89950 54.62931 35800 ft 483 kts 69°
2026-05-08 11:43 47.91127 54.67622 36013 ft 483 kts 69°
2026-05-08 11:44 47.92297 54.72309 36212 ft 483 kts 70°
2026-05-08 11:44 47.93469 54.77003 36406 ft 483 kts 70°
2026-05-08 11:44 47.94643 54.81709 36622 ft 484 kts 70°
2026-05-08 11:44 47.95818 54.86413 36799 ft 484 kts 70°
2026-05-08 11:45 47.96992 54.91129 36857 ft 485 kts 70°
2026-05-08 11:45 47.99328 55.00572 36848 ft 485 kts 70°
2026-05-08 11:46 48.01653 55.10012 36849 ft 485 kts 70°
2026-05-08 11:46 48.03980 55.19472 36850 ft 485 kts 70°
2026-05-08 11:47 48.06297 55.28946 36848 ft 485 kts 70°
2026-05-08 11:47 48.08628 55.38488 36853 ft 486 kts 70°
2026-05-08 11:48 48.10931 55.47998 36853 ft 486 kts 71°
2026-05-08 11:48 48.13224 55.57508 36857 ft 486 kts 70°
2026-05-08 11:49 48.15517 55.67048 36860 ft 486 kts 71°
2026-05-08 11:49 48.17803 55.76585 36859 ft 487 kts 71°
2026-05-08 11:50 48.20086 55.86132 36864 ft 487 kts 71°
2026-05-08 11:50 48.22354 55.95720 36865 ft 488 kts 71°
2026-05-08 11:51 48.24611 56.05305 36865 ft 488 kts 71°
2026-05-08 11:51 48.26863 56.14907 36861 ft 488 kts 71°
2026-05-08 11:52 48.29104 56.24510 36860 ft 487 kts 71°
2026-05-08 11:52 48.31341 56.34112 36858 ft 487 kts 71°
2026-05-08 11:53 48.33565 56.43728 36856 ft 487 kts 72°
2026-05-08 11:53 48.35784 56.53359 36853 ft 487 kts 72°
2026-05-08 11:54 48.37994 56.62981 36854 ft 487 kts 72°
2026-05-08 11:54 48.40204 56.72626 36854 ft 488 kts 72°
2026-05-08 11:55 48.42410 56.82290 36860 ft 488 kts 72°
2026-05-08 11:55 48.44610 56.91960 36864 ft 488 kts 72°
2026-05-08 11:56 48.46799 57.01658 36866 ft 489 kts 72°
2026-05-08 11:56 48.48980 57.11360 36869 ft 489 kts 72°
2026-05-08 11:57 48.51154 57.21085 36870 ft 489 kts 73°
2026-05-08 11:57 48.53317 57.30810 36872 ft 490 kts 73°
2026-05-08 11:58 48.55485 57.40562 36875 ft 490 kts 73°
2026-05-08 11:58 48.57648 57.50325 36878 ft 490 kts 73°
2026-05-08 11:59 48.60857 57.65006 36887 ft 491 kts 73°
2026-05-08 11:59 48.62994 57.74814 36885 ft 491 kts 73°
2026-05-08 12:00 48.65128 57.84621 36884 ft 492 kts 73°
2026-05-08 12:00 48.67250 57.94454 36888 ft 492 kts 73°
2026-05-08 12:01 48.69364 58.04308 36878 ft 492 kts 73°
2026-05-08 12:01 48.71481 58.14170 36882 ft 493 kts 73°
2026-05-08 12:02 48.73583 58.24055 36888 ft 493 kts 74°
2026-05-08 12:02 48.75673 58.33937 36885 ft 493 kts 74°
2026-05-08 12:03 48.77764 58.43828 36891 ft 493 kts 74°
2026-05-08 12:03 48.79845 58.53715 36892 ft 493 kts 74°
2026-05-08 12:04 48.81916 58.63638 36890 ft 493 kts 74°
2026-05-08 12:04 48.83970 58.73554 36892 ft 493 kts 74°
2026-05-08 12:05 48.85673 58.81813 36893 ft 493 kts 74°
2026-05-08 12:05 48.87729 58.91815 36892 ft 493 kts 74°
2026-05-08 12:06 48.89776 59.01749 36893 ft 493 kts 74°
2026-05-08 12:06 48.91816 59.11708 36893 ft 493 kts 75°
2026-05-08 12:07 48.93825 59.21670 36890 ft 492 kts 75°
2026-05-08 12:07 48.95830 59.31628 36888 ft 493 kts 75°
2026-05-08 12:08 48.97822 59.41605 36882 ft 493 kts 75°
2026-05-08 12:08 48.99815 59.51583 36879 ft 493 kts 75°
2026-05-08 12:09 49.01801 59.61569 36874 ft 493 kts 75°
2026-05-08 12:09 49.03784 59.71580 36871 ft 493 kts 75°
2026-05-08 12:10 49.05751 59.81600 36867 ft 494 kts 75°
2026-05-08 12:10 49.07705 59.91640 36869 ft 494 kts 75°
2026-05-08 12:11 49.09658 60.01690 36867 ft 494 kts 75°
2026-05-08 12:11 49.11605 60.11748 36871 ft 495 kts 75°
2026-05-08 12:12 49.13548 60.21822 36873 ft 495 kts 75°
2026-05-08 12:12 49.15480 60.31925 36869 ft 495 kts 75°
2026-05-08 12:13 49.17400 60.42033 36869 ft 496 kts 76°
2026-05-08 12:13 49.19317 60.52163 36865 ft 496 kts 76°
2026-05-08 12:14 49.21228 60.62301 36862 ft 496 kts 76°
2026-05-08 12:14 49.23129 60.72454 36863 ft 497 kts 76°
2026-05-08 12:15 49.25022 60.82620 36865 ft 497 kts 76°
2026-05-08 12:15 49.26910 60.92794 36871 ft 497 kts 76°
2026-05-08 12:16 49.28791 61.03000 36869 ft 498 kts 76°
2026-05-08 12:16 49.30661 61.13213 36873 ft 498 kts 76°
2026-05-08 12:17 49.32523 61.23443 36874 ft 498 kts 76°
2026-05-08 12:17 49.34380 61.33681 36877 ft 499 kts 76°
2026-05-08 12:18 49.36237 61.43942 36876 ft 499 kts 76°
2026-05-08 12:18 49.38079 61.54209 36876 ft 499 kts 76°
2026-05-08 12:19 49.39908 61.64491 36876 ft 500 kts 77°
2026-05-08 12:19 49.41728 61.74799 36880 ft 500 kts 77°
2026-05-08 12:20 49.43549 61.85110 36880 ft 500 kts 77°
2026-05-08 12:20 49.45361 61.95437 36880 ft 501 kts 77°
2026-05-08 12:21 49.47158 62.05787 36882 ft 501 kts 77°
2026-05-08 12:21 49.48946 62.16141 36883 ft 501 kts 77°
2026-05-08 12:22 49.50736 62.26517 36882 ft 502 kts 77°
2026-05-08 12:22 49.52513 62.36906 36887 ft 502 kts 77°
2026-05-08 12:23 49.54271 62.47295 36889 ft 502 kts 77°
2026-05-08 12:23 49.55770 62.57763 36891 ft 499 kts 85°
2026-05-08 12:24 49.56689 62.68358 36892 ft 499 kts 85°
2026-05-08 12:24 49.57609 62.78958 36891 ft 499 kts 85°
2026-05-08 12:25 49.58515 62.89559 36889 ft 499 kts 85°
2026-05-08 12:25 49.59404 63.00171 36890 ft 499 kts 85°
2026-05-08 12:26 49.60285 63.10789 36892 ft 499 kts 85°
2026-05-08 12:26 49.61163 63.21402 36892 ft 499 kts 85°
2026-05-08 12:27 49.62030 63.32023 36892 ft 499 kts 85°
2026-05-08 12:27 49.62884 63.42653 36890 ft 499 kts 85°
2026-05-08 12:28 49.64371 63.53120 36891 ft 503 kts 73°
2026-05-08 12:28 49.66594 63.63348 36889 ft 503 kts 73°
2026-05-08 12:29 49.68795 63.73597 36890 ft 503 kts 73°
2026-05-08 12:29 49.70982 63.83862 36891 ft 503 kts 73°
2026-05-08 12:30 49.73165 63.94146 36898 ft 503 kts 73°
2026-05-08 12:30 49.75358 64.04498 36895 ft 503 kts 73°
2026-05-08 12:31 49.77531 64.14799 36896 ft 503 kts 73°
2026-05-08 12:31 49.79689 64.25098 36898 ft 504 kts 73°
2026-05-08 12:32 49.81847 64.35417 36899 ft 503 kts 73°
2026-05-08 12:32 49.83979 64.45741 36893 ft 503 kts 74°
2026-05-08 12:33 49.86110 64.56077 36895 ft 503 kts 74°
2026-05-08 12:33 49.88233 64.66425 36889 ft 503 kts 74°
2026-05-08 12:34 49.90339 64.76770 36890 ft 503 kts 74°
2026-05-08 12:34 49.92442 64.87124 36891 ft 503 kts 74°
2026-05-08 12:35 49.94538 64.97489 36891 ft 503 kts 74°
2026-05-08 12:35 49.96631 65.07861 36885 ft 503 kts 74°
2026-05-08 12:36 49.98706 65.18242 36886 ft 503 kts 74°
2026-05-08 12:36 50.00771 65.28639 36891 ft 503 kts 74°
2026-05-08 12:37 50.02823 65.39038 36887 ft 503 kts 74°
2026-05-08 12:37 50.04872 65.49433 36887 ft 503 kts 74°
2026-05-08 12:38 50.06913 65.59834 36888 ft 502 kts 75°
2026-05-08 12:38 50.08930 65.70245 36886 ft 502 kts 75°
2026-05-08 12:39 50.10931 65.80668 36891 ft 503 kts 75°
2026-05-08 12:39 50.12935 65.91108 36892 ft 503 kts 75°
2026-05-08 12:40 50.14933 66.01543 36892 ft 502 kts 75°
2026-05-08 12:40 50.16816 66.12028 36890 ft 502 kts 76°
2026-05-08 12:41 50.18569 66.22551 36886 ft 501 kts 77°
2026-05-08 12:41 50.20316 66.33073 36886 ft 501 kts 77°
2026-05-08 12:42 50.22082 66.43586 36881 ft 500 kts 77°
2026-05-08 12:42 50.23548 66.52321 36881 ft 500 kts 77°
2026-05-08 12:43 50.25311 66.62834 36884 ft 500 kts 77°
2026-05-08 12:43 50.27061 66.73355 36884 ft 500 kts 77°
2026-05-08 12:44 50.28794 66.83877 36891 ft 500 kts 77°
2026-05-08 12:44 50.30523 66.94416 36888 ft 500 kts 77°
2026-05-08 12:45 50.32254 67.04936 36887 ft 499 kts 76°
2026-05-08 12:45 50.34211 67.15373 36884 ft 500 kts 74°
2026-05-08 12:46 50.36297 67.25740 36882 ft 500 kts 73°
2026-05-08 12:46 50.38344 67.36145 36884 ft 499 kts 74°
2026-05-08 12:47 50.40315 67.46580 36882 ft 499 kts 75°
2026-05-08 12:47 50.42260 67.57030 36887 ft 500 kts 75°
2026-05-08 12:48 50.44226 67.67491 36879 ft 500 kts 75°
2026-05-08 12:48 50.46193 67.77953 36884 ft 500 kts 75°
2026-05-08 12:49 50.48155 67.88502 36878 ft 500 kts 75°
2026-05-08 12:49 50.50085 67.98996 36876 ft 501 kts 75°
2026-05-08 12:50 50.51997 68.09443 36885 ft 501 kts 75°
2026-05-08 12:50 50.53271 68.20163 36879 ft 499 kts 84°
2026-05-08 12:51 50.54635 68.36390 36888 ft 500 kts 84°
2026-05-08 12:52 50.55550 68.47302 36895 ft 500 kts 84°
2026-05-08 12:52 50.56875 68.63582 36894 ft 501 kts 85°
2026-05-08 12:53 50.57741 68.74455 36896 ft 501 kts 85°
2026-05-08 12:53 50.58610 68.85328 36903 ft 501 kts 85°
2026-05-08 12:54 50.59467 68.96203 36901 ft 501 kts 85°
2026-05-08 12:54 50.60311 69.07074 36901 ft 500 kts 85°
2026-05-08 12:55 50.61141 69.17945 36762 ft 500 kts 85°
2026-05-08 12:55 50.61549 69.23369 36500 ft 500 kts 85°
2026-05-08 12:55 50.61953 69.28806 36244 ft 500 kts 85°
2026-05-08 12:56 50.62354 69.34240 35993 ft 500 kts 85°
2026-05-08 12:56 50.62757 69.39686 35742 ft 501 kts 85°
2026-05-08 12:56 50.63160 69.45133 35502 ft 501 kts 85°
2026-05-08 12:56 50.63565 69.50586 35243 ft 502 kts 85°
2026-05-08 12:57 50.63968 69.56046 34881 ft 502 kts 85°
2026-05-08 12:57 50.64368 69.61522 34514 ft 503 kts 85°
2026-05-08 12:57 50.64764 69.67001 34177 ft 504 kts 85°
2026-05-08 12:57 50.65155 69.72481 33821 ft 504 kts 85°
2026-05-08 12:58 50.65545 69.77975 33417 ft 505 kts 85°
2026-05-08 12:58 50.65936 69.83479 33013 ft 506 kts 85°
2026-05-08 12:58 50.66324 69.88988 32620 ft 506 kts 85°
2026-05-08 12:58 50.66705 69.94498 32231 ft 507 kts 85°
2026-05-08 12:59 50.67085 70.00030 31846 ft 508 kts 85°
2026-05-08 12:59 50.67463 70.05566 31466 ft 508 kts 85°
2026-05-08 12:59 50.67839 70.11112 31096 ft 509 kts 86°
2026-05-08 12:59 50.68220 70.16666 30722 ft 510 kts 84°
2026-05-08 13:00 50.68905 70.22158 30272 ft 512 kts 75°
2026-05-08 13:00 50.70087 70.27458 29780 ft 513 kts 68°
2026-05-08 13:00 50.71446 70.32668 29214 ft 514 kts 68°
2026-05-08 13:00 50.72800 70.37884 28663 ft 513 kts 68°
2026-05-08 13:01 50.74145 70.43106 28124 ft 513 kts 68°
2026-05-08 13:01 50.75475 70.48314 27590 ft 508 kts 68°
2026-05-08 13:01 50.76777 70.53430 27009 ft 497 kts 68°
2026-05-08 13:01 50.78056 70.58461 26374 ft 490 kts 68°
2026-05-08 13:02 50.79319 70.63416 25754 ft 483 kts 68°
2026-05-08 13:02 50.80566 70.68316 25156 ft 477 kts 69°
2026-05-08 13:02 50.81793 70.73154 24559 ft 472 kts 69°
2026-05-08 13:02 50.83006 70.77952 23912 ft 467 kts 69°
2026-05-08 13:03 50.84201 70.82695 23228 ft 462 kts 69°
2026-05-08 13:03 50.85383 70.87396 22482 ft 458 kts 69°
2026-05-08 13:03 50.86552 70.92051 21800 ft 453 kts 69°
2026-05-08 13:03 50.87709 70.96670 21130 ft 449 kts 69°
2026-05-08 13:04 50.88942 71.01178 20470 ft 443 kts 61°
2026-05-08 13:04 50.90633 71.05186 19824 ft 432 kts 49°
2026-05-08 13:04 50.92730 71.08488 19184 ft 420 kts 37°
2026-05-08 13:04 50.95130 71.11015 18577 ft 409 kts 25°
2026-05-08 13:05 50.97708 71.12740 17945 ft 398 kts 16°
2026-05-08 13:05 51.00295 71.14173 17258 ft 391 kts 16°
2026-05-08 13:05 51.02839 71.15594 16588 ft 385 kts 16°
2026-05-08 13:05 51.05344 71.17006 15927 ft 379 kts 16°
2026-05-08 13:06 51.07816 71.18401 15282 ft 375 kts 16°
2026-05-08 13:06 51.10256 71.19781 14659 ft 370 kts 16°
2026-05-08 13:06 51.12664 71.21147 14065 ft 365 kts 16°
2026-05-08 13:06 51.15045 71.22495 13449 ft 363 kts 16°
2026-05-08 13:07 51.17434 71.23846 12799 ft 365 kts 16°
2026-05-08 13:07 51.19817 71.25247 12158 ft 367 kts 21°
2026-05-08 13:07 51.22038 71.27253 11528 ft 366 kts 33°
2026-05-08 13:07 51.23927 71.29924 10915 ft 361 kts 46°
2026-05-08 13:08 51.25495 71.33010 10311 ft 355 kts 50°
2026-05-08 13:08 51.27015 71.36081 9711 ft 349 kts 50°
2026-05-08 13:08 51.28510 71.39089 9096 ft 343 kts 50°
2026-05-08 13:08 51.29979 71.42035 8534 ft 335 kts 50°
2026-05-08 13:09 51.31411 71.44908 8059 ft 326 kts 50°
2026-05-08 13:09 51.32785 71.47702 7722 ft 313 kts 54°
2026-05-08 13:09 51.33677 71.50782 7425 ft 303 kts 77°
2026-05-08 13:09 51.33779 71.54078 7150 ft 295 kts 100°
2026-05-08 13:10 51.33133 71.57133 6908 ft 288 kts 122°
2026-05-08 13:10 51.31895 71.59574 6661 ft 278 kts 139°
2026-05-08 13:10 51.30521 71.61692 6417 ft 271 kts 139°
2026-05-08 13:10 51.29190 71.63754 6190 ft 263 kts 138°
2026-05-08 13:11 51.27892 71.65771 5933 ft 257 kts 137°
2026-05-08 13:11 51.26644 71.67760 5678 ft 251 kts 137°
2026-05-08 13:11 51.25431 71.69719 5436 ft 246 kts 137°
2026-05-08 13:11 51.24240 71.71628 5247 ft 238 kts 140°
2026-05-08 13:12 51.22904 71.72978 5209 ft 220 kts 161°
2026-05-08 13:12 51.21470 71.73495 5206 ft 204 kts 180°
2026-05-08 13:12 51.20115 71.73291 5212 ft 192 kts 197°
2026-05-08 13:12 51.18897 71.72482 5221 ft 188 kts 213°
2026-05-08 13:13 51.17902 71.71189 5062 ft 182 kts 225°
2026-05-08 13:13 51.17010 71.69779 4827 ft 179 kts 225°
2026-05-08 13:13 51.16142 71.68407 4596 ft 173 kts 225°
2026-05-08 13:13 51.15304 71.67087 4380 ft 165 kts 225°
2026-05-08 13:14 51.14495 71.65812 4165 ft 160 kts 225°
2026-05-08 13:14 51.13734 71.64614 3966 ft 148 kts 225°
2026-05-08 13:14 51.13017 71.63488 3773 ft 143 kts 225°
2026-05-08 13:14 51.12317 71.62387 3586 ft 141 kts 224°
2026-05-08 13:15 51.11628 71.61304 3413 ft 138 kts 224°
2026-05-08 13:15 51.10941 71.60224 3223 ft 139 kts 224°
2026-05-08 13:15 51.10254 71.59146 3034 ft 139 kts 225°
2026-05-08 13:15 51.09569 71.58067 2852 ft 139 kts 225°
2026-05-08 13:16 51.08883 71.56991 2691 ft 139 kts 224°
2026-05-08 13:16 51.08195 71.55918 2452 ft 139 kts 224°
2026-05-08 13:16 51.07511 71.54848 2309 ft 138 kts 223°
2026-05-08 13:16 51.06826 71.53773 2114 ft 138 kts 224°
2026-05-08 13:17 51.06146 71.52709 1956 ft 137 kts 224°
2026-05-08 13:17 51.05461 71.51639 1778 ft 139 kts 223°
2026-05-08 13:17 51.04772 71.50562 1605 ft 140 kts 224°
2026-05-08 13:17 51.04084 71.49483 1422 ft 139 kts 224°
2026-05-08 13:18 51.03397 71.48410 1213 ft 137 kts 224°
2026-05-08 13:18 51.02755 71.47397 1163 ft 113 kts 221°
2026-05-08 13:18 51.02325 71.46727 1167 ft 62 kts 225°
2026-05-08 13:18 51.02104 71.46384 1165 ft 30 kts 225°
2026-05-08 13:19 51.01962 71.46160 1166 ft 19 kts 224°
2026-05-08 13:19 51.01864 71.46007 1168 ft 20 kts 224°
2026-05-08 13:19 51.01760 71.45845 1166 ft 21 kts 225°
2026-05-08 13:19 51.01693 71.45728 1166 ft 12 kts 242°
2026-05-08 13:20 51.01725 71.45609 1165 ft 13 kts 313°
2026-05-08 13:20 51.01760 71.45550 1161 ft 1 kts 314°
2026-05-08 13:20 51.01766 71.45541 1163 ft 1 kts 314°
2026-05-08 13:20 51.01769 71.45535 1164 ft 1 kts 314°
2026-05-08 13:21 51.01795 71.45505 1163 ft 5 kts 334°
2026-05-08 13:21 51.01828 71.45506 1164 ft 5 kts 15°
2026-05-08 13:21 51.01873 71.45560 1164 ft 8 kts 44°
2026-05-08 13:21 51.01949 71.45677 1164 ft 21 kts 45°
2026-05-08 13:22 51.02061 71.45852 1164 ft 24 kts 44°
2026-05-08 13:22 51.02174 71.46028 1163 ft 22 kts 44°
2026-05-08 13:22 51.02262 71.46165 1164 ft 14 kts 45°
2026-05-08 13:22 51.02336 71.46236 1164 ft 12 kts 357°
2026-05-08 13:23 51.02397 71.46164 1164 ft 11 kts 316°
2026-05-08 13:23 51.02446 71.46086 1164 ft 10 kts 314°
2026-05-08 13:23 51.02490 71.46015 1164 ft 9 kts 315°
2026-05-08 13:23 51.02531 71.45950 1164 ft 8 kts 314°
2026-05-08 13:24 51.02567 71.45891 1163 ft 7 kts 315°
2026-05-08 13:24 51.02606 71.45857 1163 ft 6 kts 358°
2026-05-08 13:24 51.02636 71.45890 1163 ft 5 kts 43°
2026-05-08 13:24 51.02651 71.45914 1163 ft 1 kts 44°
2026-05-08 13:25 51.02654 71.45918 1163 ft 0 kts 45°
2026-05-08 13:25 51.02654 71.45919 1163 ft 0 kts 45°
2026-05-08 13:25 51.02658 71.45925 1163 ft 0 kts 45°